�N����,����,�~����,�C��,���x,�C��,����,���ϕ���,�ő�u�ԕ���,�ő厞����,���˗�,�I�_���x,�n�����x,�ő啗���N��,DTYPE
"17/10/18","00:10",0.0,10.9,98.6,1016.6,304.2,1.1,1.8,317.7,0.00,10.7,16.7,"00:01:20",1
"17/10/18","00:20",0.0,11.0,98.0,1016.4,298.6,1.1,1.8,314.8,0.00,10.7,16.5,"00:16:56",1
"17/10/18","00:30",0.0,10.9,97.8,1016.4,303.0,1.0,1.7,311.4,0.00,10.6,16.4,"00:20:02",1
"17/10/18","00:40",0.0,10.5,98.7,1016.4,285.4,1.3,1.8,306.8,0.00,10.3,16.5,"00:38:16",1
"17/10/18","00:50",0.0,10.7,98.0,1015.9,293.6,1.1,1.7,292.4,0.00,10.4,16.6,"00:45:04",1
"17/10/18","01:00",0.0,10.8,98.0,1016.1,297.7,1.5,2.1,312.2,0.00,10.5,16.3,"00:54:56",1
"17/10/18","01:10",0.0,10.8,98.1,1015.9,304.4,1.7,2.7,325.2,0.00,10.6,16.4,"01:02:56",1
"17/10/18","01:20",0.0,10.9,97.9,1016.4,281.5,1.0,1.4,287.4,0.00,10.6,16.2,"01:11:52",1
"17/10/18","01:30",0.0,10.6,98.9,1016.4,293.8,1.0,1.8,312.7,0.00,10.5,16.2,"01:20:40",1
"17/10/18","01:40",0.0,10.8,98.3,1016.4,294.4,1.2,2.1,318.5,0.00,10.6,16.4,"01:30:32",1
"17/10/18","01:50",0.0,10.7,97.9,1016.1,288.1,1.0,1.4,291.6,0.00,10.4,16.3,"01:45:44",1
"17/10/18","02:00",0.0,10.5,99.0,1016.4,270.0,0.8,1.2,292.6,0.00,10.4,16.1,"01:51:20",1
"17/10/18","02:10",0.0,10.5,98.1,1016.1,299.6,1.5,2.1,310.6,0.00,10.3,16.1,"02:06:08",1
"17/10/18","02:20",0.0,10.4,98.0,1016.1,306.5,1.6,2.4,319.9,0.00,10.1,16.2,"02:19:20",1
"17/10/18","02:30",0.0,10.3,97.9,1016.4,298.1,1.2,1.8,310.7,0.00,10.0,15.9,"02:20:24",1
"17/10/18","02:40",0.0,9.9,98.9,1015.9,300.4,1.3,2.0,319.3,0.00,9.8,16.0,"02:33:28",1
"17/10/18","02:50",0.0,10.0,98.3,1016.1,288.6,1.0,1.3,283.4,0.00,9.8,16.2,"02:44:56",1
"17/10/18","03:00",0.0,10.0,98.3,1016.1,314.3,1.5,2.0,321.1,0.00,9.8,16.1,"02:55:36",1
"17/10/18","03:10",0.0,9.9,98.1,1016.6,304.0,1.3,2.1,325.5,0.00,9.7,15.9,"03:01:28",1
"17/10/18","03:20",0.0,9.7,98.1,1016.1,307.6,1.1,1.8,312.7,0.00,9.5,16.1,"03:17:02",1
"17/10/18","03:30",0.0,9.7,98.1,1016.4,305.3,1.6,2.4,320.3,0.00,9.5,15.8,"03:21:50",1
"17/10/18","03:40",0.2,9.7,98.1,1016.1,282.7,0.7,1.3,284.3,0.00,9.5,15.8,"03:31:20",1
"17/10/18","03:50",0.0,9.7,98.3,1016.6,304.2,1.2,2.5,321.1,0.00,9.5,15.7,"03:47:06",1
"17/10/18","04:00",0.0,10.0,98.3,1016.6,313.8,1.3,2.2,318.4,0.00,9.8,15.7,"03:54:40",1
"17/10/18","04:10",0.0,10.1,98.3,1016.6,294.2,0.7,1.1,253.3,0.00,9.9,15.5,"04:01:18",1
"17/10/18","04:20",0.0,9.9,98.1,1016.6,354.3,0.6,1.3,48.7,0.00,9.7,15.6,"04:19:28",1
"17/10/18","04:30",0.0,9.8,98.1,1016.4,10.7,0.7,1.1,303.5,0.00,9.6,15.7,"04:21:44",1
"17/10/18","04:40",0.0,9.8,98.5,1016.6,342.3,0.7,1.3,13.7,0.00,9.6,15.7,"04:37:44",1
"17/10/18","04:50",0.0,9.9,98.2,1016.6,7.1,0.8,1.2,35.4,0.00,9.7,15.5,"04:41:04",1
"17/10/18","05:00",0.0,9.7,98.2,1016.6,346.7,0.7,1.2,354.2,0.00,9.5,15.6,"04:51:36",1
"17/10/18","05:10",0.0,9.6,98.3,1016.8,3.9,0.6,1.1,42.1,0.00,9.4,15.6,"05:01:12",1
"17/10/18","05:20",0.0,9.7,98.4,1016.6,0.4,1.0,1.7,12.1,0.00,9.5,15.7,"05:12:00",1
"17/10/18","05:30",0.0,9.7,98.3,1016.8,359.9,0.8,1.3,359.0,0.00,9.5,15.7,"05:20:56",1
"17/10/18","05:40",0.0,9.6,98.3,1016.4,18.2,1.0,1.3,34.4,0.00,9.4,15.5,"05:34:48",1
"17/10/18","05:50",0.0,9.7,98.4,1016.8,8.3,1.2,1.9,16.5,0.00,9.5,15.5,"05:43:04",1
"17/10/18","06:00",0.0,9.8,98.6,1016.8,10.8,1.2,1.7,15.1,0.00,9.6,15.6,"05:57:36",1
"17/10/18","06:10",0.0,10.3,98.6,1017.3,13.4,1.5,2.4,25.7,0.00,10.1,15.4,"06:03:12",1
"17/10/18","06:20",0.0,10.5,98.6,1017.1,358.9,1.3,1.9,353.8,0.00,10.3,15.5,"06:15:36",1
"17/10/18","06:30",0.0,10.7,98.5,1017.1,9.4,1.3,2.0,356.2,0.00,10.5,15.5,"06:28:40",1
"17/10/18","06:40",0.0,10.9,98.5,1016.8,11.7,1.5,2.0,11.0,0.00,10.7,15.4,"06:32:40",1
"17/10/18","06:50",0.0,11.0,98.4,1016.8,3.5,1.2,1.9,5.3,0.01,10.8,15.4,"06:40:56",1
"17/10/18","07:00",0.0,11.7,98.7,1017.1,11.4,1.5,2.2,17.1,0.03,11.5,15.6,"06:53:04",1
"17/10/18","07:10",0.0,12.0,98.3,1016.8,357.9,1.2,1.9,355.7,0.02,11.8,15.3,"07:04:32",1
"17/10/18","07:20",0.0,12.2,98.2,1017.1,5.3,1.3,2.1,0.2,0.03,12.0,15.7,"07:13:36",1
"17/10/18","07:30",0.0,12.7,98.1,1017.5,14.0,1.2,2.4,41.8,0.04,12.4,15.5,"07:27:44",1
"17/10/18","07:40",0.0,12.5,98.2,1017.3,297.6,0.5,1.1,252.0,0.04,12.3,15.8,"07:38:16",1
"17/10/18","07:50",0.0,13.1,97.6,1017.5,42.1,0.5,1.0,47.8,0.05,12.8,15.7,"07:41:52",1
"17/10/18","08:00",0.0,13.8,97.9,1017.8,34.1,0.8,1.7,35.0,0.06,13.5,15.9,"07:54:56",1
"17/10/18","08:10",0.0,14.8,95.3,1017.5,26.1,0.6,1.0,347.4,0.09,14.1,15.7,"08:01:20",1
"17/10/18","08:20",0.0,16.0,91.9,1017.8,15.3,0.3,1.1,357.1,0.13,14.7,16.1,"08:11:36",1
"17/10/18","08:30",0.0,16.5,83.4,1017.5,204.8,0.3,1.3,226.3,0.18,13.7,16.1,"08:27:20",1
"17/10/18","08:40",0.0,17.1,77.4,1018.0,206.0,0.8,1.7,193.6,0.24,13.2,16.1,"08:36:40",1
"17/10/18","08:50",0.0,17.6,77.6,1018.2,171.0,0.6,1.7,216.9,0.21,13.7,16.2,"08:42:40",1
"17/10/18","09:00",0.0,18.1,76.2,1017.8,202.7,0.6,1.4,224.0,0.27,13.9,16.5,"08:57:52",1
"17/10/18","09:10",0.0,18.3,72.8,1018.2,214.2,0.6,1.6,130.5,0.31,13.4,16.5,"09:07:04",1
"17/10/18","09:20",0.0,18.0,70.8,1017.5,272.4,0.8,2.1,233.4,0.21,12.7,16.8,"09:15:04",1
"17/10/18","09:30",0.0,18.4,70.3,1017.3,329.8,1.8,3.5,329.0,0.32,12.9,17.0,"09:29:20",1
"17/10/18","09:40",0.0,19.1,70.0,1017.8,27.2,0.8,2.7,327.5,0.37,13.5,16.9,"09:30:16",1
"17/10/18","09:50",0.0,19.3,66.5,1018.2,331.2,1.5,2.9,357.9,0.38,13.0,17.1,"09:42:08",1
"17/10/18","10:00",0.0,19.6,65.3,1017.8,342.4,1.5,3.1,324.1,0.40,13.0,17.4,"09:55:52",1
"17/10/18","10:10",0.0,19.9,61.0,1017.5,320.2,1.5,2.9,333.2,0.41,12.2,17.6,"10:00:40",1
"17/10/18","10:20",0.0,20.6,59.0,1017.3,6.0,1.3,3.1,356.7,0.44,12.4,17.7,"10:19:04",1
"17/10/18","10:30",0.0,19.7,57.2,1017.1,351.7,1.5,3.2,351.4,0.25,11.0,17.6,"10:23:28",1
"17/10/18","10:40",0.0,20.8,53.5,1016.8,341.0,1.3,3.3,308.6,0.45,11.1,17.9,"10:39:36",1
"17/10/18","10:50",0.0,20.0,55.1,1016.1,353.8,1.6,4.4,337.4,0.26,10.8,17.8,"10:43:44",1
"17/10/18","11:00",0.0,20.5,56.0,1016.1,318.0,1.2,2.9,342.1,0.34,11.5,18.1,"10:56:48",1
"17/10/18","11:10",0.0,20.2,56.4,1016.1,325.7,1.2,3.1,312.8,0.23,11.3,18.2,"11:06:56",1
"17/10/18","11:20",0.0,20.3,57.0,1015.9,334.9,2.2,4.1,312.4,0.30,11.6,18.5,"11:10:16",1
"17/10/18","11:30",0.0,20.6,53.8,1015.9,337.6,2.3,4.7,321.6,0.42,11.0,18.4,"11:22:16",1
"17/10/18","11:40",0.0,21.4,55.2,1015.4,338.9,2.3,5.0,337.3,0.47,12.1,18.6,"11:35:28",1
"17/10/18","11:50",0.0,20.7,54.9,1015.2,347.8,2.5,5.0,340.7,0.36,11.4,18.8,"11:44:00",1
"17/10/18","12:00",0.0,20.8,51.7,1015.4,6.4,2.3,6.3,355.7,0.41,10.5,18.9,"11:57:20",1
"17/10/18","12:10",0.0,20.1,52.4,1015.2,2.1,2.7,5.1,24.3,0.30,10.1,18.8,"12:08:56",1
"17/10/18","12:20",0.0,19.5,53.1,1015.2,352.6,2.7,7.0,324.0,0.22,9.7,18.9,"12:16:32",1
"17/10/18","12:30",0.0,19.4,54.2,1014.9,345.9,2.7,5.9,324.3,0.21,10.0,19.0,"12:24:08",1
"17/10/18","12:40",0.0,19.3,60.1,1015.4,348.0,2.5,4.5,342.9,0.19,11.4,19.0,"12:38:16",1
"17/10/18","12:50",0.0,19.0,60.8,1014.9,353.4,2.6,4.8,341.2,0.17,11.3,18.9,"12:42:40",1
"17/10/18","13:00",0.0,18.9,58.1,1014.7,355.1,2.3,4.5,341.9,0.15,10.5,18.9,"12:56:56",1
"17/10/18","13:10",0.0,18.5,59.0,1014.7,356.5,2.3,6.8,326.9,0.13,10.4,18.9,"13:09:52",1
"17/10/18","13:20",0.0,18.5,59.3,1014.7,353.9,2.1,4.4,14.8,0.09,10.5,18.7,"13:19:04",1
"17/10/18","13:30",0.0,18.3,62.4,1014.9,346.2,2.1,4.3,350.8,0.08,11.0,18.7,"13:24:40",1
"17/10/18","13:40",0.0,18.1,62.2,1014.7,349.0,2.2,4.2,16.2,0.08,10.8,18.7,"13:32:00",1
"17/10/18","13:50",0.0,17.9,64.4,1014.7,346.0,2.2,4.4,338.4,0.07,11.1,18.6,"13:49:36",1
"17/10/18","14:00",0.0,18.0,66.0,1014.9,336.5,2.0,4.1,347.9,0.09,11.6,18.6,"13:52:56",1
"17/10/18","14:10",0.0,17.9,67.3,1015.2,338.0,2.1,4.1,328.5,0.05,11.8,18.6,"14:07:28",1
"17/10/18","14:20",0.0,17.6,68.2,1014.7,339.1,2.0,4.5,337.0,0.04,11.7,18.6,"14:19:36",1
"17/10/18","14:30",0.0,17.4,69.5,1014.7,334.9,2.3,5.0,347.4,0.03,11.8,18.6,"14:28:32",1
"17/10/18","14:40",0.0,17.3,70.2,1015.2,340.3,2.2,4.5,336.5,0.05,11.9,18.4,"14:35:36",1
"17/10/18","14:50",0.0,17.4,69.1,1014.9,337.3,2.3,5.7,323.0,0.06,11.7,18.5,"14:49:44",1
"17/10/18","15:00",0.0,17.3,69.4,1015.2,338.5,2.3,4.3,341.2,0.04,11.7,18.3,"14:52:16",1
"17/10/18","15:10",0.0,17.2,70.2,1015.2,335.1,2.2,6.0,332.8,0.04,11.8,18.2,"15:08:00",1
"17/10/18","15:20",0.0,17.2,70.1,1015.4,340.4,1.7,4.1,344.6,0.03,11.7,18.1,"15:16:16",1
"17/10/18","15:30",0.0,17.1,70.5,1014.9,341.9,1.7,3.3,326.6,0.02,11.7,18.4,"15:21:36",1
"17/10/18","15:40",0.0,17.1,70.9,1014.7,334.8,1.8,4.0,322.1,0.03,11.8,18.3,"15:32:24",1
"17/10/18","15:50",0.0,17.1,70.8,1014.7,334.3,2.0,3.6,331.4,0.03,11.8,18.2,"15:41:44",1
"17/10/18","16:00",0.0,17.0,70.5,1014.9,335.6,2.0,4.5,343.8,0.02,11.6,18.2,"15:52:24",1
"17/10/18","16:10",0.0,17.0,71.5,1014.9,344.3,1.1,3.2,346.4,0.01,11.9,18.0,"16:01:44",1
"17/10/18","16:20",0.0,16.9,72.1,1015.2,333.8,1.1,2.7,329.7,0.01,11.9,17.9,"16:19:12",1
"17/10/18","16:30",0.0,16.8,72.8,1014.5,349.7,0.8,1.6,338.0,0.01,11.9,17.9,"16:23:36",1
"17/10/18","16:40",0.0,16.8,74.6,1014.2,315.6,0.7,1.3,342.5,0.00,12.3,18.2,"16:31:52",1
"17/10/18","16:50",0.0,16.5,75.8,1014.2,326.5,1.0,1.6,337.0,0.00,12.3,18.1,"16:44:40",1
"17/10/18","17:00",0.0,16.2,77.7,1014.7,300.1,0.7,1.6,326.5,0.00,12.3,18.1,"16:50:08",1
"17/10/18","17:10",0.0,16.0,78.7,1014.7,290.0,0.7,1.2,319.3,0.00,12.3,18.1,"17:02:00",1
"17/10/18","17:20",0.0,15.8,80.5,1014.9,278.1,0.5,1.2,239.7,0.00,12.5,18.1,"17:18:24",1
"17/10/18","17:30",0.0,15.5,81.3,1015.2,266.3,0.8,1.3,229.2,0.00,12.4,17.9,"17:21:12",1
"17/10/18","17:40",0.0,15.4,80.4,1015.2,308.0,0.2,0.6,128.1,0.00,12.1,18.0,"17:38:48",1
"17/10/18","17:50",0.2,15.2,81.0,1015.2,283.7,0.7,1.3,307.2,0.00,12.0,17.9,"17:49:12",1
"17/10/18","18:00",0.0,15.1,82.3,1014.9,273.5,0.8,1.2,301.8,0.00,12.1,17.9,"17:50:16",1
"17/10/18","18:10",0.0,15.1,83.3,1015.4,278.3,1.0,1.4,259.4,0.00,12.3,17.9,"18:04:40",1
"17/10/18","18:20",0.0,15.2,83.8,1014.7,295.4,0.8,1.6,267.0,0.00,12.5,17.8,"18:10:40",1
"17/10/18","18:30",0.0,15.1,84.5,1014.9,325.2,1.2,2.0,342.5,0.00,12.5,18.0,"18:24:00",1
"17/10/18","18:40",0.0,15.0,85.0,1014.9,279.6,0.7,1.1,290.0,0.00,12.5,17.8,"18:33:12",1
"17/10/18","18:50",0.0,14.9,85.3,1014.9,275.1,0.7,1.4,272.9,0.00,12.5,17.8,"18:42:08",1
"17/10/18","19:00",0.0,14.8,85.6,1015.2,289.4,0.6,1.1,318.5,0.00,12.5,17.7,"18:57:20",1
"17/10/18","19:10",0.0,14.8,85.4,1015.2,274.6,1.1,1.9,262.6,0.00,12.4,17.5,"19:02:24",1
"17/10/18","19:20",0.0,14.9,85.3,1015.4,289.3,1.0,1.6,301.2,0.00,12.5,17.6,"19:10:40",1
"17/10/18","19:30",0.0,14.9,85.2,1015.2,297.3,0.7,1.3,309.1,0.00,12.5,17.6,"19:28:00",1
"17/10/18","19:40",0.0,14.9,85.8,1015.4,287.5,0.6,1.1,271.0,0.00,12.6,17.7,"19:36:08",1
"17/10/18","19:50",0.0,14.8,87.1,1014.9,311.6,1.0,1.8,327.0,0.00,12.7,17.7,"19:45:12",1
"17/10/18","20:00",0.0,14.8,87.8,1014.9,316.9,1.3,2.1,328.4,0.00,12.8,17.6,"19:58:32",1
"17/10/18","20:10",0.0,14.7,88.0,1015.2,294.0,1.1,3.2,321.2,0.00,12.8,17.5,"20:09:12",1
"17/10/18","20:20",0.0,14.6,88.0,1015.2,309.3,1.7,2.9,312.5,0.00,12.7,17.6,"20:13:36",1
"17/10/18","20:30",0.0,14.5,88.6,1015.2,281.2,0.7,1.6,332.3,0.00,12.7,17.5,"20:29:04",1
"17/10/18","20:40",0.0,14.4,89.3,1015.2,264.1,1.1,1.7,255.4,0.00,12.7,17.5,"20:35:20",1
"17/10/18","20:50",0.0,14.4,89.9,1015.4,272.1,1.0,1.8,248.9,0.00,12.8,17.7,"20:44:00",1
"17/10/18","21:00",0.0,14.3,90.2,1015.4,283.1,1.0,1.6,319.8,0.00,12.8,17.6,"20:52:16",1
"17/10/18","21:10",0.0,14.3,90.3,1014.9,285.4,1.0,2.0,335.6,0.00,12.8,17.5,"21:03:52",1
"17/10/18","21:20",0.0,14.4,90.5,1014.9,265.2,1.0,2.0,227.2,0.00,12.9,17.4,"21:18:00",1
"17/10/18","21:30",0.0,14.3,90.4,1014.9,271.0,1.0,2.0,262.7,0.00,12.8,17.4,"21:24:16",1
"17/10/18","21:40",0.0,14.3,90.8,1014.9,303.3,1.1,2.4,331.6,0.00,12.9,17.4,"21:30:02",1
"17/10/18","21:50",0.0,14.3,91.1,1015.2,305.7,1.5,3.1,319.3,0.00,12.9,17.3,"21:46:00",1
"17/10/18","22:00",0.0,14.3,91.3,1014.9,270.3,1.1,2.4,284.6,0.00,12.9,17.4,"21:54:40",1
"17/10/18","22:10",0.0,14.3,91.5,1015.2,283.3,0.8,1.4,309.8,0.00,13.0,17.3,"22:04:32",1
"17/10/18","22:20",0.0,14.3,91.7,1014.7,276.0,0.7,1.2,256.1,0.00,13.0,17.3,"22:17:52",1
"17/10/18","22:30",0.0,14.4,91.8,1014.7,261.4,1.1,1.9,242.5,0.00,13.1,17.4,"22:20:48",1
"17/10/18","22:40",0.0,14.4,91.9,1014.7,264.9,1.1,1.8,240.3,0.00,13.1,17.5,"22:33:12",1
"17/10/18","22:50",0.0,14.5,92.0,1014.5,319.4,0.8,1.4,339.6,0.00,13.3,17.2,"22:49:04",1
"17/10/18","23:00",0.0,14.5,92.3,1014.5,311.6,1.1,2.4,324.9,0.00,13.3,17.5,"22:59:28",1
"17/10/18","23:10",0.0,14.5,92.5,1014.2,321.5,1.5,2.6,318.6,0.00,13.3,17.2,"23:09:52",1
"17/10/18","23:20",0.0,14.5,92.8,1014.5,292.4,1.1,2.4,324.5,0.00,13.4,17.2,"23:10:08",1
"17/10/18","23:30",0.0,14.4,93.2,1014.2,278.5,1.0,1.8,268.2,0.00,13.4,17.2,"23:29:36",1
"17/10/18","23:40",0.0,14.4,93.5,1014.5,279.2,1.2,2.2,298.1,0.00,13.4,17.5,"23:33:12",1
"17/10/18","23:50",0.0,14.4,93.7,1014.2,305.4,1.2,3.2,324.1,0.00,13.4,17.1,"23:49:36",1
"17/10/18","24:00",0.0,14.4,94.0,1014.2,316.8,1.3,2.2,316.0,0.00,13.5,17.2,"23:58:16",1
